This is the latest recevied weather packets stored in our database for station/object VE1AIC-4. If no packets are shown the sender has not sent any weather packets the latest 10 day(s).
| Time | Temp. | Humidity | Pressure | Rain* | Wind** | Luminosity | Snow |
|---|---|---|---|---|---|---|---|
| 1778257829 | 9.44° C | 89% | 1000.6 hPa | 0 mm | - | 228 W/m² | - |
| 1778255442 | 8.89° C | 95% | 1000.6 hPa | 0 mm | - | 182 W/m² | - |
| 1778247630 | 8.33° C | 99% | 1000.9 hPa | 0.25 mm | - | 302 W/m² | - |
| 1778245869 | 7.78° C | 99% | 1000.9 hPa | 0.25 mm | - | 162 W/m² | - |
| 1778244624 | 7.78° C | 99% | 1000.8 hPa | 0.25 mm | - | 233 W/m² | - |
| 1778241641 | 7.22° C | 99% | 1000.8 hPa | 0 mm | - | 119 W/m² | - |
| 1778240490 | 6.67° C | 99% | 1000.6 hPa | 0 mm | - | 137 W/m² | - |
| 1778239285 | 6.67° C | 99% | 1000.5 hPa | 0 mm | - | 79 W/m² | - |
| 1778233866 | 5° C | 98% | 1000.1 hPa | 0 mm | - | 35 W/m² | - |
| 1778227232 | 4.44° C | 98% | 1000.4 hPa | 0 mm | - | 0 W/m² | - |
| 1778222447 | 6.11° C | 98% | 1000.3 hPa | 0.25 mm | - | 0 W/m² | - |
| 1778221890 | 5° C | 97% | 1000.4 hPa | 0.25 mm | - | 0 W/m² | - |
| 1778221218 | 5.56° C | 97% | 1000.4 hPa | 0.25 mm | - | 0 W/m² | - |
| 1778218831 | 6.11° C | 97% | 1000.3 hPa | 0 mm | - | 0 W/m² | - |
| 1778214646 | 7.22° C | 97% | 1000.2 hPa | 0 mm | - | 0 W/m² | - |
| 1778210430 | 7.78° C | 97% | 1000.9 hPa | 0 mm | - | 0 W/m² | - |
| 1778207503 | 8.89° C | 97% | 1000.8 hPa | 0 mm | - | 0 W/m² | - |
| 1778206834 | 8.89° C | 97% | 1000.9 hPa | 0 mm | - | 0 W/m² | - |
| 1778204419 | 9.44° C | 96% | 1001 hPa | 0 mm | - | 0 W/m² | - |
| 1778197228 | 10.56° C | 95% | 1000.3 hPa | 0 mm | - | 0 W/m² | - |
| 1778194838 | 11.11° C | 95% | 1000.1 hPa | 0 mm | - | 12 W/m² | - |
| 1778194260 | 11.11° C | 95% | 1000.2 hPa | 0 mm | - | 11 W/m² | - |
| 1778190032 | 11.67° C | 96% | 999.9 hPa | 0 mm | - | 53 W/m² | - |
| 1778179882 | 11.11° C | 97% | 999.3 hPa | 0.51 mm | - | 258 W/m² | - |
| 1778178036 | 10.56° C | 97% | 999.4 hPa | 0.76 mm | - | 124 W/m² | - |
* Rain latest hour (hover to see other rain measurements)
** Current wind speed in m/s (hover to see current wind gust speed)